This is the latest recevied weather packets stored in our database for station/object KA9CBS. If no packets are shown the sender has not sent any weather packets the latest 10 day(s).
| Time | Temp. | Humidity | Pressure | Rain* | Wind** | Luminosity | Snow |
|---|---|---|---|---|---|---|---|
| 1787419637 | 26.67° C | 71% | 1018.6 hPa | 0 mm | - | 557 W/m² | - |
| 1787419336 | 26.67° C | 70% | 1019 hPa | 0 mm | - | 621 W/m² | - |
| 1787419033 | 26.67° C | 72% | 1018.8 hPa | 0 mm | - | 340 W/m² | - |
| 1787418732 | 26.67° C | 71% | 1018.6 hPa | 0 mm | - | 651 W/m² | - |
| 1787418429 | 26.67° C | 72% | 1018.6 hPa | 0 mm | - | 623 W/m² | - |
| 1787418125 | 26.67° C | 72% | 1018.6 hPa | 0 mm | - | 654 W/m² | - |
| 1787417821 | 26.67° C | 74% | 1018.6 hPa | 0 mm | - | 650 W/m² | - |
| 1787417516 | 26.67° C | 73% | 1018.4 hPa | 0 mm | - | 611 W/m² | - |
| 1787417211 | 26.67° C | 74% | 1018.4 hPa | 0 mm | - | 591 W/m² | - |
| 1787416907 | 26.67° C | 75% | 1018.4 hPa | 0 mm | - | 607 W/m² | - |
| 1787416603 | 26.67° C | 76% | 1018.7 hPa | 0 mm | - | 277 W/m² | - |
| 1787416298 | 26.67° C | 76% | 1018.7 hPa | 0 mm | - | 317 W/m² | - |
| 1787415998 | 26.67° C | 78% | 1018.8 hPa | 0 mm | - | 678 W/m² | - |
| 1787415692 | 26.67° C | 77% | 1018.7 hPa | 0 mm | - | 615 W/m² | - |
| 1787415387 | 26.67° C | 78% | 1018.6 hPa | 0 mm | - | 660 W/m² | - |
| 1787415082 | 26.67° C | 78% | 1018.6 hPa | 0 mm | - | 596 W/m² | - |
| 1787414779 | 26.67° C | 77% | 1018.3 hPa | 0 mm | - | 303 W/m² | - |
| 1787414474 | 26.67° C | 78% | 1018.2 hPa | 0 mm | - | 544 W/m² | - |
| 1787414173 | 26.67° C | 79% | 1018.4 hPa | 0 mm | - | 557 W/m² | - |
| 1787413872 | 26.67° C | 78% | 1018.3 hPa | 0 mm | - | 557 W/m² | - |
| 1787413567 | 26.67° C | 79% | 1018.2 hPa | 0 mm | - | 530 W/m² | - |
| 1787413266 | 26.11° C | 80% | 1018.1 hPa | 0 mm | - | 507 W/m² | - |
| 1787412963 | 26.11° C | 81% | 1018.3 hPa | 0 mm | - | 482 W/m² | - |
| 1787412658 | 26.67° C | 84% | 1018 hPa | 0 mm | - | 463 W/m² | - |
| 1787412358 | 26.11° C | 85% | 1017.6 hPa | 0 mm | - | 442 W/m² | - |
* Rain latest hour (hover to see other rain measurements)
** Current wind speed in m/s (hover to see current wind gust speed)